QPF
0.04 0.04 0.03 0.02 0.02 0.02 0.04 0.03 0.03 0.03 0.04 0.04 0.04 0.04 0.03 0.03 0.03 0.03 0.02 0.02 0.02 0.02 0.02 0.02 0.01 0.01 0.01 0.01 0.02 0.02 0.02 0.02 0.03 0.02 0.02 0.03 0.02 0.02 0.02 0.02 0.02 0.02 0.01
0.04 0.04 0.03 0.03 0.03 0.02 0.02 0.03 0.03 0.03 0.03 0.03 0.03 0.03 0.03 0.03 0.04 0.04 0.05 0.05 0.05 0.04 0.03 0.02 0.02 0.02 0.01 0.01 0.01 0.01 0.02 0.03 0.03 0.03 0.02 0.02 0.02 0.02 0.02 0.01 0.01 0.01 0.01
0.04 0.03 0.03 0.03 0.03 0.02 0.03 0.02 0.02 0.03 0.03 0.03 0.03 0.03 0.02 0.02 0.03 0.04 0.05 0.05 0.05 0.05 0.04 0.02 0.02 0.02 0.02 0.01 0.01 0.01 0.01 0.03 0.03 0.03 0.03 0.02 0.02 0.02 0.02 0.01 0.00 0.00 0.01
0.04 0.03 0.03 0.02 0.02 0.02 0.03 0.03 0.02 0.03 0.03 0.03 0.02 0.03 0.04 0.04 0.03 0.03 0.03 0.03 0.02 0.02 0.03 0.03 0.02 0.02 0.02 0.03 0.03 0.02 0.02 0.02 0.04 0.05 0.04 0.03 0.02 0.01 0.01 0.01 0.01 0.00 0.00
0.05 0.04 0.03 0.03 0.03 0.03 0.03 0.03 0.02 0.03 0.03 0.03 0.03 0.04 0.04 0.03 0.03 0.04 0.04 0.03 0.02 0.01 0.01 0.02 0.02 0.02 0.02 0.03 0.03 0.04 0.03 0.03 0.03 0.05 0.06 0.04 0.02 0.01 0.01 0.01 0.01 0.00 0.00
0.05 0.04 0.03 0.03 0.03 0.03 0.04 0.03 0.02 0.03 0.03 0.03 0.03 0.04 0.04 0.04 0.05 0.05 0.04 0.04 0.03 0.02 0.01 0.01 0.01 0.01 0.01 0.01 0.02 0.03 0.03 0.03 0.02 0.03 0.04 0.05 0.03 0.02 0.01 0.01 0.01 0.00 0.00
0.04 0.04 0.03 0.03 0.03 0.03 0.03 0.02 0.02 0.02 0.02 0.02 0.02 0.03 0.03 0.03 0.05 0.05 0.04 0.03 0.02 0.02 0.02 0.01 0.01 0.00 0.00 0.01 0.02 0.01 0.01 0.02 0.02 0.02 0.02 0.03 0.04 0.04 0.02 0.01 0.01 0.01 0.01
0.04 0.03 0.02 0.02 0.02 0.02 0.02 0.02 0.01 0.02 0.02 0.02 0.02 0.02 0.02 0.03 0.04 0.05 0.04 0.03 0.02 0.02 0.02 0.02 0.01 0.01 0.01 0.02 0.02 0.01 0.01 0.01 0.01 0.01 0.01 0.02 0.03 0.04 0.05 0.03 0.02 0.02 0.01
0.04 0.04 0.03 0.03 0.02 0.02 0.01 0.01 0.01 0.02 0.02 0.02 0.01 0.01 0.01 0.02 0.03 0.04 0.04 0.02 0.02 0.01 0.02 0.02 0.02 0.02 0.02 0.02 0.01 0.01 0.01 0.01 0.01 0.01 0.01 0.01 0.02 0.03 0.05 0.05 0.04 0.03 0.02
0.03 0.03 0.03 0.03 0.03 0.02 0.01 0.01 0.02 0.02 0.02 0.02 0.02 0.02 0.01 0.01 0.02 0.03 0.03 0.02 0.01 0.01 0.01 0.02 0.02 0.02 0.03 0.03 0.02 0.01 0.01 0.01 0.02 0.02 0.01 0.01 0.01 0.02 0.03 0.04 0.04 0.04 0.03
0.04 0.03 0.02 0.02 0.02 0.02 0.02 0.01 0.02 0.03 0.03 0.02 0.02 0.02 0.02 0.02 0.02 0.02 0.02 0.02 0.01 0.01 0.01 0.01 0.01 0.01 0.02 0.03 0.03 0.02 0.02 0.02 0.02 0.02 0.02 0.01 0.01 0.01 0.02 0.02 0.03 0.03 0.03
0.03 0.03 0.02 0.01 0.01 0.01 0.02 0.02 0.02 0.02 0.03 0.03 0.02 0.02 0.02 0.01 0.01 0.01 0.02 0.02 0.03 0.02 0.02 0.02 0.02 0.02 0.03 0.03 0.04 0.02 0.03 0.03 0.03 0.03 0.02 0.02 0.01 0.01 0.02 0.02 0.02 0.02 0.03
0.02 0.02 0.01 0.01 0.01 0.01 0.01 0.02 0.02 0.02 0.02 0.02 0.02 0.02 0.02 0.02 0.01 0.01 0.02 0.02 0.04 0.03 0.02 0.02 0.02 0.03 0.02 0.02 0.03 0.02 0.02 0.02 0.02 0.02 0.02 0.02 0.02 0.02 0.02 0.02 0.02 0.02 0.02
0.02 0.02 0.01 0.01 0.00 0.00 0.01 0.01 0.01 0.02 0.01 0.01 0.02 0.01 0.01 0.01 0.01 0.01 0.01 0.02 0.03 0.03 0.02 0.03 0.03 0.02 0.01 0.02 0.03 0.02 0.01 0.01 0.01 0.02 0.02 0.02 0.02 0.02 0.02 0.03 0.03 0.03 0.03
0.03 0.02 0.01 0.01 0.00 0.00 0.00 0.00 0.01 0.01 0.02 0.02 0.02 0.02 0.02 0.02 0.02 0.02 0.02 0.01 0.02 0.02 0.02 0.03 0.03 0.03 0.02 0.02 0.02 0.02 0.01 0.01 0.01 0.01 0.01 0.01 0.01 0.01 0.01 0.01 0.02 0.02 0.02
0.02 0.02 0.01 0.00 0.00 0.00 0.00 0.00 0.00 0.00 0.01 0.02 0.02 0.03 0.02 0.02 0.02 0.02 0.02 0.01 0.02 0.03 0.04 0.03 0.04 0.04 0.04 0.03 0.03 0.02 0.02 0.01 0.01 0.01 0.01 0.01 0.01 0.01 0.01 0.01 0.01 0.02 0.02
0.02 0.02 0.01 0.01 0.00 0.00 0.00 0.00 0.00 0.00 0.00 0.00 0.01 0.02 0.02 0.02 0.02 0.02 0.02 0.01 0.01 0.02 0.03 0.04 0.04 0.03 0.03 0.03 0.02 0.02 0.02 0.01 0.01 0.01 0.01 0.01 0.01 0.01 0.01 0.01 0.01 0.01 0.02
0.01 0.01 0.01 0.00 0.00 0.00 0.00 0.00 0.00 0.00 0.00 0.00 0.00 0.01 0.01 0.02 0.02 0.01 0.01 0.01 0.01 0.02 0.03 0.04 0.04 0.04 0.04 0.03 0.02 0.02 0.02 0.01 0.01 0.01 0.01 0.01 0.01 0.01 0.01 0.01 0.01 0.01 0.02
0.01 0.01 0.00 0.00 0.00 0.00 0.00 0.00 0.00 0.00 0.00 0.00 0.00 0.01 0.01 0.01 0.01 0.01 0.01 0.01 0.01 0.01 0.02 0.03 0.04 0.04 0.04 0.04 0.04 0.03 0.03 0.02 0.02 0.02 0.02 0.02 0.02 0.02 0.02 0.02 0.01 0.02 0.02
0.01 0.01 0.01 0.00 0.00 0.00 0.00 0.00 0.00 0.00 0.00 0.00 0.00 0.01 0.01 0.01 0.01 0.01 0.01 0.01 0.01 0.01 0.01 0.02 0.03 0.04 0.04 0.04 0.04 0.04 0.04 0.03 0.03 0.02 0.02 0.02 0.03 0.03 0.02 0.02 0.02 0.02 0.02
0.00 0.01 0.01 0.01 0.00 0.00 0.00 0.00 0.00 0.00 0.00 0.00 0.01 0.01 0.01 0.01 0.01 0.01 0.01 0.01 0.01 0.02 0.02 0.02 0.02 0.03 0.03 0.03 0.03 0.04 0.04 0.04 0.03 0.03 0.03 0.03 0.03 0.03 0.03 0.02 0.02 0.02 0.02
0.01 0.00 0.00 0.01 0.00 0.00 0.00 0.00 0.00 0.00 0.00 0.00 0.00 0.01 0.01 0.01 0.01 0.01 0.01 0.01 0.02 0.02 0.03 0.03 0.02 0.03 0.03 0.03 0.03 0.03 0.03 0.03 0.04 0.04 0.03 0.04 0.04 0.04 0.03 0.03 0.02 0.02 0.02
0.01 0.01 0.00 0.00 0.01 0.01 0.00 0.00 0.00 0.00 0.00 0.01 0.00 0.00 0.01 0.01 0.01 0.01 0.01 0.01 0.02 0.02 0.02 0.02 0.02 0.02 0.03 0.02 0.02 0.02 0.02 0.02 0.03 0.04 0.04 0.04 0.04 0.03 0.03 0.03 0.02 0.02 0.02
0.01 0.01 0.01 0.00 0.00 0.01 0.01 0.00 0.01 0.00 0.00 0.01 0.01 0.01 0.00 0.00 0.00 0.01 0.01 0.01 0.01 0.01 0.01 0.02 0.02 0.02 0.02 0.02 0.02 0.02 0.03 0.03 0.04 0.04 0.04 0.04 0.03 0.03 0.03 0.03 0.02 0.02 0.01
0.01 0.01 0.01 0.01 0.01 0.01 0.01 0.01 0.00 0.00 0.00 0.01 0.01 0.01 0.00 0.00 0.00 0.00 0.01 0.01 0.01 0.01 0.01 0.01 0.02 0.02 0.02 0.02 0.02 0.02 0.03 0.04 0.05 0.05 0.05 0.04 0.04 0.03 0.03 0.03 0.02 0.02 0.02
0.01 0.01 0.01 0.01 0.01 0.01 0.01 0.01 0.01 0.01 0.00 0.00 0.01 0.01 0.01 0.01 0.01 0.01 0.01 0.01 0.01 0.01 0.01 0.01 0.02 0.02 0.02 0.02 0.02 0.03 0.03 0.04 0.04 0.05 0.05 0.05 0.04 0.04 0.03 0.03 0.02 0.02 0.02
MSLP
1011.54 1011.71 1011.95 1012.23 1012.54 1012.87 1013.20 1013.54 1013.89 1014.25 1014.61 1014.98 1015.33 1015.68 1016.00 1016.31 1016.60 1016.89 1017.19 1017.50 1017.83 1018.20 1018.59 1019.00 1019.44 1019.91 1020.41 1020.95 1021.53 1022.16 1022.82 1023.52 1024.23 1024.91 1025.54 1026.07 1026.50 1026.80 1027.00 1027.09 1027.11 1027.11 1027.11
1011.49 1011.59 1011.76 1011.98 1012.24 1012.54 1012.87 1013.22 1013.60 1013.98 1014.38 1014.77 1015.14 1015.50 1015.83 1016.13 1016.43 1016.72 1017.03 1017.35 1017.71 1018.10 1018.52 1018.96 1019.43 1019.92 1020.43 1020.98 1021.57 1022.20 1022.87 1023.58 1024.31 1025.02 1025.69 1026.29 1026.78 1027.16 1027.42 1027.59 1027.67 1027.71 1027.73
1011.52 1011.55 1011.64 1011.78 1011.99 1012.24 1012.55 1012.89 1013.28 1013.68 1014.11 1014.52 1014.92 1015.28 1015.62 1015.92 1016.22 1016.51 1016.81 1017.15 1017.53 1017.94 1018.40 1018.88 1019.38 1019.90 1020.44 1021.00 1021.59 1022.22 1022.88 1023.58 1024.30 1025.02 1025.71 1026.33 1026.88 1027.32 1027.65 1027.88 1028.04 1028.13 1028.19
1011.63 1011.58 1011.59 1011.65 1011.78 1011.97 1012.23 1012.56 1012.94 1013.37 1013.81 1014.25 1014.67 1015.05 1015.39 1015.69 1015.97 1016.25 1016.56 1016.90 1017.29 1017.73 1018.21 1018.73 1019.27 1019.82 1020.39 1020.96 1021.54 1022.15 1022.79 1023.46 1024.15 1024.84 1025.52 1026.16 1026.73 1027.22 1027.62 1027.93 1028.16 1028.31 1028.42
1011.80 1011.68 1011.60 1011.57 1011.61 1011.73 1011.93 1012.22 1012.59 1013.02 1013.48 1013.94 1014.37 1014.77 1015.11 1015.41 1015.69 1015.96 1016.25 1016.59 1016.99 1017.44 1017.95 1018.50 1019.07 1019.65 1020.23 1020.80 1021.37 1021.95 1022.54 1023.16 1023.80 1024.45 1025.11 1025.74 1026.33 1026.87 1027.33 1027.70 1028.00 1028.23 1028.40
1011.98 1011.80 1011.64 1011.51 1011.45 1011.48 1011.62 1011.87 1012.21 1012.63 1013.09 1013.57 1014.02 1014.42 1014.77 1015.07 1015.34 1015.60 1015.88 1016.22 1016.61 1017.08 1017.60 1018.16 1018.75 1019.34 1019.92 1020.48 1021.03 1021.56 1022.10 1022.66 1023.24 1023.85 1024.47 1025.09 1025.70 1026.27 1026.78 1027.22 1027.60 1027.89 1028.12
1012.13 1011.89 1011.64 1011.42 1011.27 1011.22 1011.28 1011.47 1011.78 1012.18 1012.64 1013.12 1013.58 1013.99 1014.35 1014.64 1014.91 1015.16 1015.44 1015.76 1016.16 1016.62 1017.15 1017.72 1018.31 1018.90 1019.48 1020.01 1020.52 1021.02 1021.50 1022.00 1022.53 1023.08 1023.67 1024.28 1024.90 1025.49 1026.05 1026.56 1027.00 1027.36 1027.64
1012.20 1011.90 1011.58 1011.28 1011.03 1010.89 1010.88 1011.02 1011.28 1011.66 1012.10 1012.58 1013.04 1013.46 1013.82 1014.12 1014.38 1014.64 1014.91 1015.24 1015.63 1016.09 1016.62 1017.19 1017.78 1018.37 1018.92 1019.44 1019.92 1020.37 1020.81 1021.26 1021.73 1022.25 1022.81 1023.41 1024.03 1024.65 1025.25 1025.81 1026.30 1026.72 1027.05
1012.16 1011.80 1011.42 1011.04 1010.72 1010.51 1010.43 1010.51 1010.73 1011.07 1011.49 1011.95 1012.41 1012.83 1013.19 1013.50 1013.78 1014.04 1014.33 1014.66 1015.06 1015.53 1016.06 1016.64 1017.22 1017.80 1018.35 1018.84 1019.30 1019.72 1020.12 1020.54 1020.99 1021.48 1022.02 1022.61 1023.24 1023.87 1024.49 1025.08 1025.60 1026.06 1026.42
1012.00 1011.59 1011.15 1010.72 1010.34 1010.06 1009.93 1009.95 1010.12 1010.42 1010.82 1011.26 1011.71 1012.12 1012.50 1012.82 1013.12 1013.41 1013.72 1014.08 1014.50 1014.99 1015.53 1016.11 1016.71 1017.28 1017.83 1018.32 1018.76 1019.17 1019.56 1019.96 1020.40 1020.87 1021.41 1021.99 1022.61 1023.24 1023.87 1024.46 1025.00 1025.46 1025.84
1011.72 1011.28 1010.80 1010.31 1009.89 1009.57 1009.39 1009.36 1009.49 1009.76 1010.12 1010.53 1010.97 1011.38 1011.77 1012.12 1012.45 1012.77 1013.12 1013.52 1013.98 1014.50 1015.07 1015.68 1016.29 1016.88 1017.43 1017.93 1018.39 1018.80 1019.20 1019.60 1020.03 1020.50 1021.03 1021.60 1022.20 1022.82 1023.43 1024.00 1024.52 1024.97 1025.34
1011.37 1010.89 1010.37 1009.85 1009.40 1009.04 1008.83 1008.77 1008.86 1009.08 1009.41 1009.80 1010.22 1010.64 1011.04 1011.42 1011.79 1012.17 1012.58 1013.03 1013.54 1014.10 1014.72 1015.35 1015.99 1016.61 1017.18 1017.71 1018.18 1018.62 1019.04 1019.46 1019.89 1020.37 1020.88 1021.43 1022.00 1022.59 1023.15 1023.69 1024.17 1024.59 1024.93
1010.95 1010.44 1009.89 1009.35 1008.87 1008.50 1008.26 1008.17 1008.23 1008.42 1008.71 1009.08 1009.49 1009.92 1010.34 1010.76 1011.18 1011.61 1012.08 1012.60 1013.16 1013.78 1014.44 1015.11 1015.78 1016.43 1017.04 1017.60 1018.11 1018.58 1019.03 1019.47 1019.92 1020.39 1020.89 1021.41 1021.94 1022.47 1022.99 1023.46 1023.89 1024.25 1024.56
1010.50 1009.95 1009.38 1008.82 1008.33 1007.94 1007.68 1007.56 1007.59 1007.75 1008.02 1008.37 1008.78 1009.21 1009.66 1010.12 1010.60 1011.09 1011.63 1012.20 1012.82 1013.49 1014.18 1014.89 1015.59 1016.27 1016.92 1017.51 1018.06 1018.57 1019.05 1019.52 1019.99 1020.46 1020.94 1021.42 1021.91 1022.38 1022.82 1023.23 1023.59 1023.90 1024.16
1010.02 1009.43 1008.84 1008.26 1007.76 1007.35 1007.07 1006.93 1006.94 1007.07 1007.32 1007.66 1008.07 1008.52 1009.00 1009.51 1010.03 1010.59 1011.18 1011.80 1012.47 1013.16 1013.88 1014.61 1015.33 1016.03 1016.70 1017.32 1017.90 1018.45 1018.97 1019.47 1019.95 1020.42 1020.88 1021.33 1021.76 1022.17 1022.55 1022.89 1023.19 1023.45 1023.68
1009.52 1008.89 1008.26 1007.67 1007.14 1006.72 1006.42 1006.26 1006.24 1006.35 1006.59 1006.92 1007.34 1007.81 1008.33 1008.88 1009.46 1010.07 1010.70 1011.36 1012.04 1012.75 1013.47 1014.19 1014.90 1015.60 1016.27 1016.91 1017.52 1018.10 1018.65 1019.17 1019.67 1020.14 1020.59 1021.02 1021.41 1021.76 1022.08 1022.37 1022.62 1022.84 1023.04
1008.98 1008.31 1007.64 1007.02 1006.47 1006.02 1005.69 1005.50 1005.46 1005.56 1005.79 1006.13 1006.57 1007.07 1007.63 1008.23 1008.85 1009.50 1010.16 1010.83 1011.51 1012.20 1012.89 1013.58 1014.27 1014.94 1015.60 1016.23 1016.85 1017.45 1018.02 1018.56 1019.08 1019.56 1020.01 1020.41 1020.78 1021.10 1021.38 1021.63 1021.85 1022.05 1022.23
1008.41 1007.69 1006.99 1006.32 1005.73 1005.24 1004.88 1004.67 1004.60 1004.69 1004.92 1005.27 1005.73 1006.28 1006.88 1007.53 1008.19 1008.87 1009.54 1010.21 1010.88 1011.53 1012.17 1012.80 1013.43 1014.05 1014.67 1015.29 1015.90 1016.50 1017.08 1017.65 1018.18 1018.68 1019.13 1019.53 1019.88 1020.19 1020.45 1020.68 1020.89 1021.08 1021.27
1007.81 1007.04 1006.28 1005.57 1004.93 1004.40 1003.99 1003.74 1003.65 1003.72 1003.95 1004.32 1004.82 1005.41 1006.07 1006.76 1007.47 1008.18 1008.86 1009.52 1010.15 1010.75 1011.33 1011.89 1012.44 1013.00 1013.57 1014.14 1014.73 1015.32 1015.92 1016.49 1017.04 1017.55 1018.01 1018.42 1018.78 1019.08 1019.35 1019.58 1019.79 1019.99 1020.19
1007.18 1006.37 1005.56 1004.79 1004.09 1003.50 1003.04 1002.74 1002.62 1002.67 1002.90 1003.30 1003.83 1004.47 1005.18 1005.92 1006.68 1007.42 1008.12 1008.77 1009.36 1009.91 1010.42 1010.90 1011.38 1011.87 1012.37 1012.90 1013.45 1014.03 1014.61 1015.19 1015.75 1016.28 1016.76 1017.18 1017.55 1017.86 1018.13 1018.38 1018.60 1018.82 1019.04
1006.55 1005.69 1004.83 1004.00 1003.24 1002.58 1002.05 1001.70 1001.53 1001.56 1001.78 1002.18 1002.75 1003.43 1004.20 1005.00 1005.81 1006.59 1007.31 1007.96 1008.53 1009.03 1009.49 1009.91 1010.31 1010.73 1011.17 1011.64 1012.16 1012.71 1013.28 1013.86 1014.43 1014.96 1015.45 1015.89 1016.27 1016.60 1016.89 1017.15 1017.39 1017.62 1017.86
1005.93 1005.04 1004.13 1003.24 1002.40 1001.67 1001.07 1000.64 1000.41 1000.40 1000.60 1001.00 1001.58 1002.30 1003.11 1003.97 1004.83 1005.65 1006.40 1007.07 1007.64 1008.12 1008.54 1008.91 1009.27 1009.63 1010.02 1010.45 1010.93 1011.45 1012.01 1012.58 1013.14 1013.68 1014.18 1014.62 1015.01 1015.36 1015.66 1015.93 1016.18 1016.43 1016.68
1005.36 1004.44 1003.49 1002.54 1001.63 1000.81 1000.12 999.61 999.31 999.23 999.38 999.76 1000.34 1001.07 1001.92 1002.81 1003.72 1004.58 1005.37 1006.07 1006.66 1007.15 1007.56 1007.91 1008.24 1008.57 1008.93 1009.33 1009.78 1010.28 1010.82 1011.37 1011.93 1012.46 1012.96 1013.41 1013.81 1014.15 1014.46 1014.74 1015.00 1015.26 1015.51
1004.86 1003.93 1002.95 1001.94 1000.96 1000.05 999.27 998.66 998.26 998.09 998.18 998.50 999.05 999.77 1000.61 1001.53 1002.46 1003.36 1004.19 1004.92 1005.54 1006.06 1006.48 1006.85 1007.18 1007.50 1007.85 1008.24 1008.67 1009.16 1009.68 1010.22 1010.76 1011.29 1011.78 1012.23 1012.63 1012.98 1013.29 1013.57 1013.83 1014.09 1014.34
1004.44 1003.51 1002.51 1001.46 1000.41 999.42 998.54 997.83 997.32 997.06 997.05 997.29 997.76 998.44 999.25 1000.15 1001.09 1002.00 1002.86 1003.62 1004.27 1004.82 1005.28 1005.67 1006.02 1006.36 1006.72 1007.11 1007.55 1008.02 1008.54 1009.07 1009.61 1010.13 1010.61 1011.06 1011.45 1011.80 1012.12 1012.40 1012.66 1012.91 1013.15
1004.11 1003.20 1002.19 1001.12 1000.02 998.96 998.00 997.18 996.57 996.19 996.06 996.20 996.57 997.16 997.90 998.76 999.66 1000.56 1001.41 1002.18 1002.86 1003.44 1003.93 1004.36 1004.75 1005.12 1005.50 1005.90 1006.35 1006.83 1007.34 1007.87 1008.40 1008.92 1009.40 1009.85 1010.24 1010.60 1010.91 1011.19 1011.45 1011.69 1011.93
Thickness
5651 5650 5649 5648 5648 5647 5646 5645 5644 5643 5643 5643 5643 5642 5641 5641 5640 5639 5638 5638 5638 5637 5637 5637 5636 5636 5635 5634 5633 5632 5632 5631 5629 5628 5628 5628 5628 5629 5629 5629 5629 5629 5629
5646 5645 5644 5643 5642 5641 5640 5640 5640 5639 5639 5639 5638 5637 5637 5636 5636 5635 5634 5633 5633 5632 5632 5632 5631 5632 5631 5630 5629 5628 5627 5627 5626 5624 5623 5623 5623 5623 5623 5623 5623 5623 5623
5640 5639 5638 5637 5636 5635 5635 5635 5635 5635 5634 5634 5633 5633 5632 5632 5631 5630 5630 5629 5628 5628 5627 5627 5627 5626 5625 5624 5624 5623 5623 5623 5622 5621 5619 5618 5617 5618 5617 5618 5618 5618 5618
5634 5633 5632 5631 5631 5630 5630 5630 5630 5630 5629 5628 5628 5628 5627 5627 5626 5625 5624 5624 5623 5623 5623 5623 5622 5622 5621 5620 5620 5619 5618 5617 5616 5616 5614 5613 5612 5612 5612 5612 5611 5612 5612
5628 5627 5626 5626 5625 5625 5624 5624 5624 5624 5623 5623 5622 5622 5621 5621 5621 5620 5619 5619 5617 5617 5617 5617 5617 5618 5618 5617 5616 5614 5613 5612 5611 5610 5609 5608 5607 5607 5608 5607 5606 5606 5606
5622 5621 5621 5620 5620 5619 5618 5617 5617 5616 5616 5616 5615 5615 5615 5616 5616 5615 5614 5613 5612 5611 5611 5611 5611 5612 5612 5612 5613 5612 5611 5609 5607 5606 5605 5604 5605 5605 5604 5604 5601 5600 5601
5616 5615 5615 5614 5614 5614 5613 5611 5610 5609 5609 5608 5608 5607 5607 5608 5609 5609 5609 5607 5606 5605 5605 5605 5606 5606 5606 5605 5606 5606 5606 5606 5606 5604 5602 5602 5602 5603 5601 5599 5598 5598 5598
5610 5609 5609 5609 5608 5607 5606 5605 5604 5603 5602 5601 5601 5600 5600 5601 5602 5603 5602 5601 5600 5599 5599 5600 5599 5600 5600 5600 5599 5598 5598 5599 5600 5600 5600 5601 5601 5600 5599 5598 5596 5593 5592
5605 5604 5604 5603 5602 5601 5599 5598 5598 5596 5595 5594 5593 5593 5593 5593 5595 5595 5595 5594 5593 5593 5594 5594 5595 5595 5596 5595 5593 5592 5592 5592 5593 5594 5594 5594 5595 5594 5594 5591 5589 5588 5587
5599 5599 5598 5597 5596 5595 5593 5592 5591 5590 5589 5588 5586 5586 5586 5586 5588 5589 5589 5588 5586 5586 5587 5588 5589 5590 5591 5590 5588 5587 5586 5586 5587 5587 5587 5587 5587 5587 5587 5587 5586 5584 5582
5593 5593 5592 5591 5590 5589 5587 5586 5585 5584 5582 5581 5580 5579 5580 5580 5581 5582 5582 5581 5580 5580 5581 5581 5583 5584 5584 5584 5584 5583 5583 5582 5580 5580 5579 5579 5579 5580 5580 5580 5580 5580 5578
5586 5586 5585 5584 5583 5583 5580 5579 5578 5576 5574 5573 5573 5573 5573 5573 5574 5575 5575 5576 5576 5575 5575 5576 5577 5577 5578 5577 5577 5577 5577 5575 5573 5572 5571 5571 5571 5572 5573 5573 5573 5573 5573
5578 5578 5577 5577 5576 5574 5573 5571 5570 5569 5567 5567 5566 5566 5566 5566 5567 5568 5568 5569 5569 5569 5570 5570 5570 5570 5570 5569 5569 5569 5568 5566 5565 5564 5564 5564 5565 5565 5565 5565 5565 5565 5565
5570 5570 5569 5568 5567 5566 5565 5564 5562 5561 5560 5560 5560 5560 5559 5559 5559 5560 5560 5561 5561 5562 5562 5562 5562 5562 5561 5561 5561 5560 5560 5559 5559 5558 5558 5557 5556 5556 5556 5557 5557 5557 5557
5562 5561 5561 5560 5559 5557 5556 5555 5555 5555 5555 5554 5554 5553 5552 5552 5553 5554 5553 5553 5554 5554 5553 5553 5552 5551 5551 5551 5551 5551 5551 5550 5550 5550 5549 5548 5548 5548 5548 5548 5549 5549 5549
5555 5553 5551 5550 5550 5549 5547 5547 5547 5547 5548 5547 5547 5547 5547 5547 5547 5546 5546 5546 5546 5546 5544 5543 5543 5543 5543 5543 5543 5542 5542 5543 5543 5543 5542 5541 5541 5541 5541 5540 5540 5541 5543
5547 5545 5544 5543 5542 5540 5539 5538 5537 5538 5538 5538 5539 5539 5539 5538 5538 5538 5538 5537 5536 5536 5534 5534 5534 5534 5534 5535 5535 5534 5535 5535 5535 5535 5535 5535 5534 5535 5534 5534 5533 5534 5535
5539 5539 5537 5535 5534 5533 5531 5530 5530 5529 5528 5528 5529 5529 5530 5529 5529 5529 5528 5527 5525 5525 5525 5525 5526 5526 5526 5526 5527 5527 5527 5527 5527 5527 5527 5527 5527 5527 5527 5527 5527 5527 5528
5531 5530 5529 5528 5527 5525 5523 5522 5521 5520 5520 5519 5519 5519 5519 5519 5519 5518 5518 5516 5516 5515 5516 5516 5517 5517 5517 5518 5518 5519 5520 5520 5520 5520 5520 5520 5520 5520 5520 5520 5520 5521 5521
5524 5524 5523 5520 5518 5517 5515 5514 5513 5512 5511 5511 5510 5510 5510 5508 5507 5507 5506 5506 5506 5507 5507 5507 5507 5508 5509 5509 5510 5510 5511 5512 5512 5512 5512 5512 5512 5512 5513 5514 5514 5514 5514
5517 5515 5516 5513 5511 5509 5508 5507 5505 5504 5503 5503 5502 5502 5502 5500 5499 5498 5497 5497 5497 5498 5498 5498 5499 5499 5500 5500 5501 5502 5503 5504 5504 5504 5504 5505 5505 5505 5506 5507 5507 5507 5507
5509 5507 5506 5504 5503 5502 5500 5499 5498 5497 5496 5495 5494 5493 5493 5492 5491 5490 5490 5489 5490 5490 5490 5490 5491 5492 5492 5493 5493 5494 5495 5495 5496 5497 5498 5498 5498 5498 5498 5499 5500 5500 5500
5501 5500 5498 5497 5495 5495 5493 5491 5490 5489 5489 5488 5487 5485 5484 5483 5483 5483 5483 5482 5482 5483 5483 5483 5483 5484 5485 5485 5486 5487 5487 5488 5489 5489 5490 5490 5491 5491 5491 5492 5492 5492 5493
5494 5492 5490 5489 5487 5486 5485 5484 5483 5482 5481 5480 5479 5478 5477 5476 5476 5476 5476 5476 5476 5476 5476 5476 5477 5477 5478 5478 5479 5480 5481 5481 5482 5482 5483 5483 5484 5484 5484 5484 5485 5485 5485
5486 5484 5483 5481 5480 5478 5478 5477 5476 5475 5474 5473 5472 5471 5470 5470 5469 5469 5469 5469 5469 5469 5470 5470 5471 5471 5472 5473 5473 5474 5474 5475 5475 5475 5475 5475 5476 5476 5477 5477 5477 5478 5477
5479 5477 5475 5473 5472 5471 5471 5470 5469 5468 5467 5466 5465 5464 5464 5463 5463 5463 5463 5462 5462 5463 5463 5464 5465 5465 5466 5466 5467 5467 5467 5468 5468 5468 5468 5468 5468 5469 5469 5470 5470 5470 5470